Location: La Fredeussais
(48.1780°N, 1.3980°W)
Time: 16:50:50
(UTC+00:00)

Cosmos 1633 Rocket - Pass Details

Date: 09 May 2021
Orbit: 608 x 622 km, 82.5° (Epoch: 23 June)

Event Time Altitude Azimuth Distance (km) Brightness Sun altitude
Rises 21:38:07 0° 343° (NNW) 2,900 7.9 -16.8°
Reaches altitude 10° 21:40:29 10° 335° (NNW) 1,992 6.9 -17.0°
Maximum altitude 21:44:30 36° 269° (W) 986 4.4 -17.4°
Enters shadow 21:47:50 14° 207° (SSW) 1,734 5.1 -17.7°
